User: anonymous   Login
Location: Belmont
(13.0833°N, 59.6000°W)
Time: 23:19:30
(UTC+00:00)
Language:

Cosmos 1842 - Orbit

View from above orbital plane
View from above orbital plane
View from above satellite
View from above satellite

Ground track
Ground track

The orbit data is extracted from the following two-line orbital elements,

1 17911U 87038A   19320.21002641  .00000830  00000-0  46362-4 0  9992
2 17911  82.5240  50.4470 0013155  88.2372 272.0365 15.12082418775069
Epoch (UTC): 16 November 2019 05:02:26
Eccentricity: 0.0013155
inclination: 82.5240°
perigee height: 521 km
apogee height: 539 km
right ascension of ascending node: 50.4470°
argument of perigee: 88.2372°
revolutions per day: 15.12082418
mean anomaly at epoch: 272.0365°
orbit number at epoch: 77506

The dashed part of the orbit path shows where the satellite is in the earth's shadow,  

DLR